period_start,C,m1,H,J0,J1,J2,J3,J4,J5,JA,JB,JC,JD,JJ,JK,JN,#
2013-10-31 00:00:24,0.05,2.30,0.00,20.40,22.29,25.20,6.02,30.96,1001.48,2063.99,2622.20,2744.99,2964.99,350.01,321.98,27.62,0000 0000 0000 0000 000000
2013-10-31 00:01:24,0.03,2.30,0.00,20.40,22.29,25.15,5.77,31.00,1001.48,2063.97,2622.08,2744.98,2964.96,350.33,322.28,27.63,0000 0000 0000 0000 000000
2013-10-31 00:02:24,0.01,2.30,0.00,20.40,22.29,25.12,5.75,31.04,1001.47,2063.98,2622.03,2744.97,2964.97,348.57,320.66,27.63,0000 0000 0000 0000 000000
2013-10-31 00:03:25,0.02,2.30,0.00,20.41,22.29,25.14,5.97,31.04,1001.48,2063.97,2622.01,2744.92,2964.88,350.57,322.59,27.64,0000 0000 0000 0000 000000
2013-10-31 00:04:25,0.02,2.30,0.00,20.43,22.29,25.15,6.10,30.88,1001.48,2063.97,2622.00,2744.87,2964.73,351.78,323.28,27.65,0000 0000 0000 0000 000000
2013-10-31 00:05:25,0.03,2.30,0.00,20.43,22.29,25.11,5.89,30.75,1001.48,2063.99,2622.00,2744.74,2964.57,350.00,322.21,27.65,0000 0000 0000 0000 000000
2013-10-31 00:06:26,0.07,2.30,0.00,20.44,22.29,25.13,5.81,30.79,1001.48,2063.99,2621.97,2744.52,2964.31,349.93,322.08,27.66,0000 0000 0000 0000 000000
2013-10-31 00:07:26,0.11,2.30,0.00,20.43,22.29,25.12,6.00,31.08,1001.48,2063.99,2621.90,2744.28,2964.13,350.11,321.59,27.66,0000 0000 0000 0000 000000
2013-10-31 00:08:26,0.11,2.30,0.00,20.44,22.29,25.11,5.97,30.71,1001.48,2063.99,2621.64,2744.16,2964.10,351.07,322.71,27.67,0000 0000 0000 0000 000000
2013-10-31 00:09:26,0.09,2.30,0.00,20.43,22.29,25.10,5.99,30.88,1001.48,2063.99,2621.34,2744.08,2964.04,350.20,322.30,27.67,0000 0000 0000 0000 000000
2013-10-31 00:10:27,0.07,2.30,0.00,20.44,22.29,25.15,5.84,30.75,1001.48,2063.99,2621.15,2744.03,2964.02,350.82,322.52,27.68,0000 0000 0000 0000 000000
2013-10-31 00:11:27,0.04,2.30,0.00,20.45,22.29,25.16,5.88,31.08,1001.48,2063.99,2621.08,2744.02,2964.00,348.53,320.50,27.69,0000 0000 0000 0000 000000
2013-10-31 00:12:27,0.01,2.30,0.00,20.46,22.28,25.16,5.93,31.13,1001.48,2063.99,2621.03,2744.01,2964.00,349.24,321.74,27.69,0000 0000 0000 0000 000000
2013-10-31 00:13:27,0.01,2.30,0.00,20.49,22.28,25.15,5.94,31.00,1001.48,2063.99,2621.01,2744.00,2964.00,350.75,322.97,27.70,0000 0000 0000 0000 000000
2013-10-31 00:14:28,0.00,2.30,0.00,20.53,22.27,25.15,5.86,30.79,1001.48,2063.99,2621.00,2744.00,2964.00,349.77,321.88,27.70,0000 0000 0000 0000 000000
2013-10-31 00:15:28,0.00,2.30,0.00,20.54,22.27,25.08,5.98,30.88,1001.48,2063.99,2621.00,2744.00,2963.98,350.02,321.84,27.71,0000 0000 0000 0000 000000
2013-10-31 00:16:28,0.01,2.30,0.00,20.52,22.27,25.11,5.94,30.79,1001.46,2063.99,2620.97,2743.99,2963.97,350.07,321.90,27.72,0000 0000 0000 0000 000000
2013-10-31 00:17:29,0.02,2.31,0.00,20.53,22.27,25.09,6.05,31.17,1001.47,2063.99,2620.86,2743.99,2963.88,350.97,322.71,27.72,0000 0000 0000 0000 000000
2013-10-31 00:18:29,0.01,2.31,0.00,20.54,22.27,25.10,6.01,31.08,1001.48,2063.99,2620.76,2743.99,2963.89,350.09,321.91,27.73,0000 0000 0000 0000 000000
2013-10-31 00:19:29,0.03,2.31,0.00,20.53,22.27,25.07,5.93,30.92,1001.48,2063.99,2620.49,2743.98,2963.72,349.83,321.67,27.73,0000 0000 0000 0000 000000
2013-10-31 00:20:29,0.08,2.31,0.00,20.54,22.27,25.08,5.92,31.00,1001.47,2063.99,2620.20,2743.93,2963.40,350.56,322.33,27.74,0000 0000 0000 0000 000000
2013-10-31 00:21:30,0.12,2.31,0.00,20.54,22.27,25.07,5.88,30.92,1001.47,2063.99,2620.08,2743.75,2963.21,349.83,321.66,27.74,0000 0000 0000 0000 000000
2013-10-31 00:22:30,0.10,2.31,0.00,20.55,22.27,25.07,5.94,30.96,1001.47,2063.99,2620.03,2743.54,2963.11,349.71,321.54,27.75,0000 0000 0000 0000 000000
2013-10-31 00:23:30,0.09,2.31,0.00,20.56,22.27,25.04,6.02,31.00,1001.46,2063.99,2620.01,2743.26,2963.05,350.27,322.04,27.76,0000 0000 0000 0000 000000
2013-10-31 00:24:30,0.07,2.31,0.00,20.54,22.27,25.04,6.04,30.88,1001.46,2063.99,2619.99,2743.11,2963.02,351.34,323.04,27.76,0000 0000 0000 0000 000000
2013-10-31 00:25:30,0.05,2.31,0.00,20.53,22.27,25.06,5.89,30.79,1001.36,2063.99,2619.98,2743.04,2963.00,350.13,322.40,27.77,0000 0000 0000 0000 000000
2013-10-31 00:26:31,0.02,2.31,0.00,20.52,22.27,25.06,5.89,30.88,1001.13,2063.99,2619.93,2743.01,2963.00,349.46,321.16,27.77,0000 0000 0000 0000 000000
2013-10-31 00:27:31,0.01,2.31,0.00,20.52,22.27,25.07,5.92,30.79,1001.03,2063.99,2619.85,2743.00,2962.98,349.97,321.67,27.78,0000 0000 0000 0000 000000
2013-10-31 00:28:31,0.02,2.31,0.00,20.51,22.27,25.03,5.98,31.13,1001.04,2063.99,2619.66,2743.00,2962.96,349.60,321.34,27.79,0000 0000 0000 0000 000000
2013-10-31 00:29:31,0.04,2.31,0.00,20.50,22.27,25.03,5.82,31.08,1001.04,2063.99,2619.34,2743.00,2962.94,350.72,322.38,27.79,0000 0000 0000 0000 000000
2013-10-31 00:30:32,0.05,2.31,0.00,20.51,22.27,25.07,5.92,31.00,1001.00,2063.99,2619.17,2743.00,2962.94,350.04,321.73,27.80,0000 0000 0000 0000 000000
2013-10-31 00:31:32,0.03,2.31,0.00,20.52,22.27,25.07,5.87,30.88,1000.99,2063.99,2619.07,2743.00,2962.74,349.67,321.03,27.80,0000 0000 0000 0000 000000
2013-10-31 00:32:32,0.04,2.31,0.00,20.52,22.27,25.05,6.05,30.75,1000.99,2063.99,2619.03,2742.98,2962.44,351.18,322.76,27.81,0000 0000 0000 0000 000000
2013-10-31 00:33:32,0.06,2.31,0.00,20.50,22.27,25.06,5.97,31.00,1000.99,2063.99,2619.01,2742.97,2962.20,349.81,321.12,27.82,0000 0000 0000 0000 000000
2013-10-31 00:34:32,0.04,2.31,0.00,20.52,22.27,25.04,5.87,30.96,1000.99,2063.99,2619.00,2742.93,2962.08,349.17,320.88,27.82,0000 0000 0000 0000 000000
2013-10-31 00:35:33,0.03,2.31,0.00,20.52,22.27,25.06,5.99,31.33,1000.95,2063.99,2618.99,2742.81,2962.03,349.75,321.36,27.83,0000 0000 0000 0000 000000
2013-10-31 00:36:33,0.06,2.31,0.00,20.53,22.27,25.07,5.93,31.04,1000.98,2063.99,2618.89,2742.51,2962.01,351.47,322.89,27.83,0000 0000 0000 0000 000000
2013-10-31 00:37:33,0.09,2.31,0.00,20.56,22.27,25.07,5.78,30.88,1000.99,2063.99,2618.81,2742.30,2962.00,349.14,320.85,27.84,0000 0000 0000 0000 000000
2013-10-31 00:38:34,0.10,2.31,0.00,20.55,22.27,25.08,6.04,30.88,1000.99,2063.99,2618.40,2742.16,2962.00,350.43,322.04,27.84,0000 0000 0000 0000 000000
2013-10-31 00:39:34,0.09,2.31,0.00,20.55,22.27,25.07,5.93,30.92,1000.99,2063.99,2618.15,2742.11,2962.00,349.88,321.54,27.85,0000 0000 0000 0000 000000
2013-10-31 00:40:34,0.06,2.31,0.00,20.54,22.27,25.06,5.95,30.67,1000.94,2063.99,2618.05,2742.05,2961.99,349.92,321.57,27.86,0000 0000 0000 0000 000000
2013-10-31 00:41:34,0.03,2.31,0.00,20.56,22.27,25.07,6.11,31.54,1000.78,2063.99,2618.01,2742.01,2961.98,350.42,321.95,27.86,0000 0000 0000 0000 000000
2013-10-31 00:42:35,0.01,2.31,0.00,20.57,22.27,25.07,5.79,31.42,1000.93,2063.99,2618.00,2742.00,2961.93,349.63,321.26,27.87,0000 0000 0000 0000 000000
2013-10-31 00:43:35,0.01,2.31,0.00,20.55,22.27,25.06,5.94,31.33,1000.89,2063.99,2618.00,2742.00,2961.81,350.10,322.00,27.87,0000 0000 0000 0000 000000
2013-10-31 00:44:35,0.02,2.31,0.00,20.54,22.27,25.05,5.93,31.42,1000.60,2063.99,2617.98,2741.99,2961.45,350.87,322.33,27.88,0000 0000 0000 0000 000000
2013-10-31 00:45:35,0.07,2.31,0.00,20.57,22.27,25.05,5.81,30.96,1000.57,2063.99,2617.94,2741.98,2961.18,349.04,320.46,27.89,0000 0000 0000 0000 000000
2013-10-31 00:46:36,0.05,2.31,0.00,20.59,22.27,25.02,5.81,31.00,1000.64,2063.99,2617.82,2741.97,2961.07,349.44,320.97,27.89,0000 0000 0000 0000 000000
2013-10-31 00:47:36,0.02,2.31,0.00,20.59,22.27,25.05,6.02,31.13,1000.70,2063.99,2617.66,2741.97,2961.03,349.74,321.27,27.90,0000 0000 0000 0000 000000
2013-10-31 00:48:36,0.06,2.32,0.00,20.61,22.27,25.05,5.78,30.71,1000.59,2063.99,2617.27,2741.93,2961.01,349.03,320.54,27.90,0000 0000 0000 0000 000000
2013-10-31 00:49:36,0.07,2.32,0.00,20.63,22.27,25.13,6.06,31.04,1000.53,2063.99,2617.10,2741.81,2961.00,350.41,321.35,27.91,0000 0000 0000 0000 000000
2013-10-31 00:50:37,0.07,2.32,0.00,20.64,22.28,25.09,5.92,31.17,1000.51,2063.99,2617.04,2741.55,2961.00,350.14,321.62,27.91,0000 0000 0000 0000 000000
2013-10-31 00:51:37,0.09,2.32,0.00,20.62,22.28,25.07,5.94,31.25,1000.51,2063.99,2617.01,2741.32,2961.00,350.67,321.79,27.92,0000 0000 0000 0000 000000
2013-10-31 00:52:37,0.06,2.32,0.00,20.61,22.28,25.06,5.96,31.17,1000.52,2063.99,2617.00,2741.19,2960.98,350.58,321.95,27.93,0000 0000 0000 0000 000000
2013-10-31 00:53:37,0.03,2.32,0.00,20.63,22.28,25.05,6.06,31.25,1000.57,2063.99,2616.99,2741.10,2960.97,350.35,321.53,27.93,0000 0000 0000 0000 000000
2013-10-31 00:54:38,0.03,2.32,0.00,20.62,22.29,25.06,5.91,31.04,1000.52,2063.99,2616.96,2741.04,2960.96,349.76,321.22,27.94,0000 0000 0000 0000 000000
2013-10-31 00:55:38,0.02,2.32,0.00,20.63,22.29,25.05,5.93,31.63,1000.48,2063.99,2616.96,2741.02,2960.95,350.57,321.40,27.94,0000 0000 0000 0000 000000
2013-10-31 00:56:38,0.02,2.32,0.00,20.64,22.29,25.08,5.91,31.33,1000.50,2063.99,2616.90,2741.02,2960.65,349.50,321.17,27.95,0000 0000 0000 0000 000000
2013-10-31 00:57:38,0.05,2.32,0.00,20.62,22.29,25.10,5.97,31.21,1000.53,2063.99,2616.69,2741.00,2960.40,350.39,321.69,27.96,0000 0000 0000 0000 000000
2013-10-31 00:58:38,0.09,2.32,0.00,20.62,22.29,25.08,5.91,31.00,1000.51,2063.99,2616.33,2741.00,2960.17,350.83,322.18,27.96,0000 0000 0000 0000 000000
2013-10-31 00:59:39,0.09,2.32,0.00,20.61,22.29,25.09,6.00,31.00,1000.50,2063.99,2616.15,2741.00,2960.07,351.39,322.70,27.97,0000 0000 0000 0000 000000
2013-10-31 01:00:39,0.05,2.32,0.00,20.60,22.29,25.10,5.74,31.29,1000.50,2063.99,2616.05,2740.99,2960.03,349.57,321.05,27.97,0000 0000 0000 0000 000000
2013-10-31 01:01:39,0.03,2.32,0.00,20.60,22.29,25.08,5.90,30.75,1000.50,2063.99,2616.01,2740.97,2960.01,349.35,320.84,27.98,0000 0000 0000 0000 000000
2013-10-31 01:02:40,0.01,2.32,0.00,20.59,22.29,25.10,5.82,31.17,1000.51,2063.99,2615.99,2740.98,2960.00,348.81,320.35,27.98,0000 0000 0000 0000 000000
2013-10-31 01:03:40,0.00,2.32,0.00,20.60,22.29,25.11,5.88,31.00,1000.50,2063.99,2615.99,2740.87,2960.00,350.12,321.83,27.99,0000 0000 0000 0000 000000
2013-10-31 01:04:40,0.05,2.32,0.00,20.59,22.29,25.12,5.86,31.04,1000.50,2063.99,2615.95,2740.53,2960.00,350.13,321.18,28.00,0000 0000 0000 0000 000000
2013-10-31 01:05:40,0.09,2.32,0.00,20.58,22.29,25.10,5.95,31.08,1000.50,2063.99,2615.73,2740.25,2959.99,349.64,321.26,28.00,0000 0000 0000 0000 000000
2013-10-31 01:06:40,0.11,2.32,0.00,20.59,22.29,25.13,5.97,31.13,1000.49,2063.99,2615.41,2740.11,2959.88,349.89,321.34,28.01,0000 0000 0000 0000 000000
2013-10-31 01:07:41,0.13,2.32,0.00,20.59,22.30,25.10,5.95,30.96,1000.49,2063.99,2615.18,2740.04,2959.66,349.74,321.20,28.01,0000 0000 0000 0000 000000
2013-10-31 01:08:41,0.08,2.32,0.00,20.59,22.30,25.09,6.01,31.00,1000.46,2063.99,2615.11,2740.02,2959.47,350.24,321.80,28.02,0000 0000 0000 0000 000000
2013-10-31 01:09:41,0.05,2.32,0.00,20.59,22.30,25.13,6.01,30.96,1000.41,2063.98,2615.04,2740.00,2959.23,350.43,322.02,28.03,0000 0000 0000 0000 000000
2013-10-31 01:10:41,0.05,2.32,0.00,20.58,22.30,25.13,5.94,31.08,1000.41,2063.99,2615.01,2740.00,2959.11,350.04,321.45,28.03,0000 0000 0000 0000 000000
2013-10-31 01:11:42,0.02,2.32,0.00,20.58,22.31,25.14,5.81,31.42,1000.34,2063.99,2615.00,2740.00,2959.04,349.29,320.76,28.04,0000 0000 0000 0000 000000
2013-10-31 01:12:42,0.00,2.32,0.00,20.60,22.31,25.14,5.99,30.92,1000.39,2063.99,2615.00,2740.00,2959.01,351.57,322.85,28.04,0000 0000 0000 0000 000000
2013-10-31 01:13:42,0.00,2.32,0.00,20.61,22.31,25.11,5.98,31.25,1000.36,2063.99,2614.99,2740.00,2959.00,350.76,322.09,28.05,0000 0000 0000 0000 000000
2013-10-31 01:14:42,0.00,2.32,0.00,20.62,22.32,25.10,6.05,31.13,1000.24,2063.99,2614.97,2739.99,2959.00,349.86,321.55,28.06,0000 0000 0000 0000 000000
2013-10-31 01:15:43,0.01,2.32,0.00,20.62,22.32,25.12,5.93,31.29,1000.25,2063.99,2614.72,2739.99,2958.99,349.59,320.63,28.06,0000 0000 0000 0000 000000
2013-10-31 01:16:43,0.05,2.32,0.00,20.62,22.32,25.10,5.92,31.29,1000.39,2063.99,2614.50,2739.99,2958.99,349.69,321.52,28.07,0000 0000 0000 0000 000000
2013-10-31 01:17:43,0.04,2.32,0.00,20.63,22.32,25.11,6.06,31.29,1000.32,2063.99,2614.25,2739.95,2958.97,350.16,321.49,28.07,0000 0000 0000 0000 000000
2013-10-31 01:18:43,0.05,2.32,0.00,20.65,22.32,25.18,5.81,30.75,1000.39,2063.99,2614.11,2739.75,2958.91,349.93,321.29,28.08,0000 0000 0000 0000 000000
2013-10-31 01:19:44,0.10,2.33,0.00,20.65,22.32,25.16,5.94,31.17,1000.48,2063.99,2614.05,2739.60,2958.87,350.44,321.79,28.08,0000 0000 0000 0000 000000
2013-10-31 01:20:44,0.06,2.33,0.00,20.64,22.32,25.17,6.02,30.83,1000.50,2063.99,2614.01,2739.44,2958.75,350.25,321.62,28.09,0000 0000 0000 0000 000000
2013-10-31 01:21:44,0.08,2.33,0.00,20.64,22.32,25.09,6.01,31.13,1000.49,2063.99,2614.00,2739.19,2958.41,350.35,321.72,28.10,0000 0000 0000 0000 000000
2013-10-31 01:22:45,0.11,2.33,0.00,20.65,22.32,25.14,5.88,31.04,1000.49,2063.99,2613.99,2739.09,2958.17,349.63,321.04,28.10,0000 0000 0000 0000 000000
2013-10-31 01:23:45,0.06,2.33,0.00,20.64,22.32,25.13,5.91,31.00,1000.47,2063.99,2613.97,2739.04,2958.08,349.61,321.02,28.11,0000 0000 0000 0000 000000
2013-10-31 01:24:45,0.02,2.33,0.00,20.64,22.32,25.13,5.81,30.92,1000.50,2063.99,2613.95,2739.01,2958.03,349.43,320.91,28.11,0000 0000 0000 0000 000000
2013-10-31 01:25:45,0.01,2.33,0.00,20.64,22.33,25.14,6.08,31.29,1000.50,2063.99,2613.94,2739.00,2958.01,350.88,321.81,28.12,0000 0000 0000 0000 000000
2013-10-31 01:26:46,0.00,2.33,0.00,20.64,22.33,25.14,5.86,31.13,1000.49,2063.99,2613.79,2739.00,2958.00,349.60,321.57,28.13,0000 0000 0000 0000 000000
2013-10-31 01:27:46,0.04,2.33,0.00,20.64,22.33,25.14,5.93,31.04,1000.49,2063.99,2613.40,2739.00,2958.00,349.35,320.58,28.13,0000 0000 0000 0000 000000
2013-10-31 01:28:46,0.06,2.33,0.00,20.63,22.34,25.14,5.99,31.00,1000.50,2063.99,2613.20,2739.00,2957.99,351.02,322.22,28.14,0000 0000 0000 0000 000000
2013-10-31 01:29:46,0.03,2.33,0.00,20.64,22.34,25.12,5.92,31.13,1000.50,2063.99,2613.08,2738.99,2957.98,350.19,321.81,28.14,0000 0000 0000 0000 000000
2013-10-31 01:30:47,0.02,2.33,0.00,20.65,22.34,25.16,5.93,30.92,1000.50,2063.99,2613.04,2738.99,2957.98,349.76,321.16,28.15,0000 0000 0000 0000 000000
2013-10-31 01:31:47,0.01,2.33,0.00,20.65,22.34,25.16,5.88,31.00,1000.50,2063.98,2613.01,2738.94,2957.84,349.85,321.30,28.16,0000 0000 0000 0000 000000
2013-10-31 01:32:47,0.04,2.33,0.00,20.65,22.34,25.13,6.01,30.96,1000.49,2063.99,2612.99,2738.76,2957.55,350.19,321.39,28.16,0000 0000 0000 0000 000000
2013-10-31 01:33:47,0.10,2.33,0.00,20.67,22.34,25.14,5.91,31.00,1000.49,2063.99,2612.99,2738.55,2957.30,348.40,320.31,28.17,0000 0000 0000 0000 000000
2013-10-31 01:34:48,0.09,2.33,0.00,20.68,22.34,25.15,5.88,30.79,1000.49,2063.99,2612.93,2738.36,2957.14,350.18,321.22,28.17,0000 0000 0000 0000 000000
2013-10-31 01:35:48,0.10,2.33,0.00,20.67,22.34,25.17,5.93,30.83,1000.50,2063.98,2612.76,2738.14,2957.06,350.83,321.62,28.18,0000 0000 0000 0000 000000
2013-10-31 01:36:48,0.10,2.33,0.00,20.66,22.34,25.18,5.88,31.04,1000.46,2063.98,2612.43,2738.06,2957.02,350.34,321.99,28.18,0000 0000 0000 0000 000000
2013-10-31 01:37:48,0.08,2.33,0.00,20.67,22.34,25.18,5.87,30.96,1000.43,2063.96,2612.19,2738.03,2957.00,350.32,321.63,28.19,0000 0000 0000 0000 000000
2013-10-31 01:38:48,0.03,2.33,0.00,20.66,22.34,25.21,5.76,30.96,1000.29,2063.97,2612.07,2738.01,2957.00,348.63,320.04,28.20,0000 0000 0000 0000 000000
2013-10-31 01:39:49,0.04,2.33,0.00,20.65,22.35,25.18,5.84,30.83,1000.37,2063.99,2612.02,2738.01,2956.97,348.56,320.01,28.20,0000 0000 0000 0000 000000
2013-10-31 01:40:49,0.02,2.33,0.00,20.67,22.35,25.17,5.97,31.00,1000.36,2063.99,2612.01,2738.00,2956.98,349.48,321.05,28.21,0000 0000 0000 0000 000000
2013-10-31 01:41:49,0.00,2.33,0.00,20.68,22.35,25.20,5.88,31.29,1000.24,2063.99,2612.00,2738.00,2956.98,349.46,321.16,28.21,0000 0000 0000 0000 000000
2013-10-31 01:42:49,0.00,2.33,0.00,20.67,22.36,25.18,5.77,30.75,1000.34,2063.99,2611.98,2738.00,2956.89,349.33,320.69,28.22,0000 0000 0000 0000 000000
2013-10-31 01:43:50,0.02,2.33,0.00,20.67,22.36,25.15,5.90,31.21,1000.26,2063.99,2611.90,2737.97,2956.64,350.14,321.42,28.23,0000 0000 0000 0000 000000
2013-10-31 01:44:50,0.06,2.33,0.00,20.68,22.36,25.17,5.87,30.92,1000.19,2063.98,2611.56,2737.89,2956.27,350.01,321.26,28.23,0000 0000 0000 0000 000000
2013-10-31 01:45:50,0.14,2.33,0.00,20.68,22.37,25.18,5.99,30.75,1000.10,2063.97,2611.32,2737.76,2956.10,350.77,321.93,28.24,0000 0000 0000 0000 000000
2013-10-31 01:46:50,0.12,2.33,0.00,20.69,22.37,25.15,5.83,30.79,1000.12,2063.98,2611.12,2737.50,2956.04,349.33,320.60,28.24,0000 0000 0000 0000 000000
2013-10-31 01:47:50,0.09,2.33,0.00,20.73,22.37,25.17,5.93,31.17,1000.05,2063.97,2611.06,2737.43,2956.02,349.94,321.42,28.25,0000 0000 0000 0000 000000
2013-10-31 01:48:51,0.03,2.34,0.00,20.74,22.37,25.21,5.77,31.04,1000.06,2063.97,2611.03,2737.29,2956.00,349.64,320.94,28.25,0000 0000 0000 0000 000000
2013-10-31 01:49:51,0.05,2.34,0.00,20.75,22.37,25.20,6.05,30.88,1000.07,2063.97,2611.01,2737.12,2956.00,350.83,321.94,28.26,0000 0000 0000 0000 000000
2013-10-31 01:50:51,0.03,2.34,0.00,20.73,22.37,25.19,5.79,31.00,1000.06,2063.96,2611.00,2737.08,2956.00,349.15,320.37,28.27,0000 0000 0000 0000 000000
2013-10-31 01:51:51,0.01,2.34,0.00,20.74,22.37,25.19,6.02,30.96,1000.03,2063.97,2611.00,2737.03,2955.99,350.60,321.67,28.27,0000 0000 0000 0000 000000
2013-10-31 01:52:52,0.02,2.34,0.00,20.76,22.37,25.18,5.80,30.88,1000.01,2063.98,2611.00,2737.01,2955.99,348.83,320.03,28.28,0000 0000 0000 0000 000000
2013-10-31 01:53:52,0.01,2.34,0.00,20.75,22.37,25.18,5.93,31.33,1000.03,2063.97,2610.99,2737.00,2955.98,350.22,321.33,28.28,0000 0000 0000 0000 000000
2013-10-31 01:54:52,0.00,2.34,0.00,20.75,22.37,25.20,5.75,30.83,1000.04,2063.97,2610.95,2737.00,2955.93,350.94,321.62,28.29,0000 0000 0000 0000 000000
2013-10-31 01:55:52,0.02,2.34,0.00,20.75,22.37,25.17,5.91,31.08,1000.02,2063.99,2610.83,2737.00,2955.73,349.49,320.65,28.30,0000 0000 0000 0000 000000
2013-10-31 01:56:52,0.06,2.34,0.00,20.77,22.38,25.16,6.04,30.92,1000.01,2063.98,2610.49,2737.00,2955.42,350.19,321.02,28.30,0000 0000 0000 0000 000000
2013-10-31 01:57:53,0.11,2.34,0.00,20.77,22.39,25.18,5.88,31.04,1000.01,2063.98,2610.22,2736.99,2955.20,349.45,320.75,28.31,0000 0000 0000 0000 000000
2013-10-31 01:58:53,0.08,2.34,0.00,20.78,22.39,25.18,5.98,30.92,1000.01,2063.96,2610.10,2736.97,2955.09,350.63,321.48,28.31,0000 0000 0000 0000 000000
2013-10-31 01:59:53,0.01,2.34,0.00,20.78,22.39,25.16,5.88,30.88,1000.01,2063.96,2610.03,2736.91,2955.03,350.43,321.61,28.32,0000 0000 0000 0000 000000
2013-10-31 02:00:53,0.06,2.34,0.00,20.77,22.39,25.20,5.96,30.83,1000.01,2063.94,2610.01,2736.88,2955.01,350.28,321.35,28.33,0000 0000 0000 0000 000000
2013-10-31 02:01:54,0.00,2.34,0.00,20.76,22.39,25.17,6.02,31.04,1000.01,2063.96,2610.00,2736.81,2955.01,350.48,321.55,28.33,0000 0000 0000 0000 000000
2013-10-31 02:02:54,0.04,2.34,0.00,20.78,22.39,25.20,5.96,30.88,1000.01,2063.96,2610.00,2736.51,2955.00,350.94,321.95,28.34,0000 0000 0000 0000 000000
2013-10-31 02:03:54,0.08,2.34,0.00,20.77,22.39,25.18,5.72,30.92,1000.01,2063.94,2609.99,2736.29,2955.00,349.05,320.23,28.34,0000 0000 0000 0000 000000
2013-10-31 02:04:54,0.05,2.34,0.00,20.78,22.39,25.20,5.82,30.96,1000.01,2063.95,2609.98,2736.15,2955.00,349.74,320.86,28.35,0000 0000 0000 0000 000000
2013-10-31 02:05:55,0.04,2.34,0.00,20.79,22.39,25.17,5.94,31.08,999.98,2063.94,2609.85,2736.07,2954.98,349.96,321.24,28.35,0000 0000 0000 0000 000000
2013-10-31 02:06:55,0.06,2.34,0.00,20.78,22.39,25.18,5.82,30.92,999.95,2063.93,2609.54,2736.02,2954.95,350.10,321.18,28.36,0000 0000 0000 0000 000000
2013-10-31 02:07:55,0.07,2.34,0.00,20.79,22.40,25.21,5.89,30.63,999.88,2063.95,2609.26,2736.00,2954.77,349.69,320.95,28.37,0000 0000 0000 0000 000000
2013-10-31 02:08:55,0.08,2.34,0.00,20.79,22.40,25.19,5.96,31.04,999.78,2063.88,2609.09,2736.00,2954.48,350.35,321.17,28.37,0000 0000 0000 0000 000000
2013-10-31 02:09:56,0.00,2.34,0.00,20.80,22.40,25.21,5.93,30.58,999.74,2063.88,2609.03,2736.00,2954.24,351.05,321.94,28.38,0000 0000 0000 0000 000000
2013-10-31 02:10:56,0.05,2.34,0.00,20.81,22.41,25.22,5.92,31.08,999.73,2063.90,2609.01,2736.00,2954.09,350.35,321.29,28.38,0000 0000 0000 0000 000000
2013-10-31 02:11:56,0.06,2.34,0.00,20.80,22.42,25.18,6.02,31.08,999.76,2063.94,2609.00,2735.99,2954.05,350.09,321.37,28.39,0000 0000 0000 0000 000000
2013-10-31 02:12:56,0.01,2.34,0.00,20.81,22.42,25.19,5.97,30.96,999.82,2063.88,2609.00,2735.97,2954.02,349.18,320.23,28.40,0000 0000 0000 0000 000000
2013-10-31 02:13:56,-0.04,2.34,0.00,20.82,22.42,25.19,5.94,31.08,999.83,2063.88,2609.00,2735.97,2954.00,350.56,321.44,28.40,0000 0000 0000 0000 000000
2013-10-31 02:14:57,0.01,2.34,0.00,20.80,22.42,25.18,5.82,31.04,999.81,2063.85,2608.89,2735.91,2954.00,349.06,320.13,28.41,0000 0000 0000 0000 000000
2013-10-31 02:15:57,0.01,2.34,0.00,20.78,22.42,25.21,5.93,30.88,999.80,2063.74,2608.58,2735.75,2954.00,349.62,320.66,28.41,0000 0000 0000 0000 000000
2013-10-31 02:16:57,0.00,2.34,0.00,20.80,22.42,25.20,6.01,31.29,999.72,2063.59,2608.27,2735.47,2953.99,350.67,321.57,28.42,0000 0000 0000 0000 000000
2013-10-31 02:17:57,0.02,2.34,0.00,20.83,22.42,25.24,5.87,30.96,999.73,2063.50,2608.16,2735.32,2953.97,350.74,321.84,28.42,0000 0000 0000 0000 000000
2013-10-31 02:18:58,-0.02,2.34,0.00,20.83,22.42,25.22,5.80,31.13,999.76,2063.57,2608.08,2735.18,2953.96,349.62,320.82,28.43,0000 0000 0000 0000 000000
2013-10-31 02:19:58,0.17,2.34,0.00,20.82,22.42,25.20,5.92,31.00,999.81,2063.65,2608.03,2735.12,2953.87,350.61,321.37,28.44,0000 0000 0000 0000 000000
2013-10-31 02:20:58,0.08,2.34,0.00,20.81,22.43,25.22,5.88,31.04,999.69,2063.54,2608.01,2735.05,2953.57,350.55,321.77,28.44,0000 0000 0000 0000 000000
2013-10-31 02:21:58,-0.01,2.34,0.00,20.82,22.44,25.24,5.94,31.17,999.61,2063.61,2608.00,2735.04,2953.29,350.10,321.00,28.45,0000 0000 0000 0000 000000
2013-10-31 02:22:58,0.09,2.34,0.00,20.84,22.44,25.25,5.94,31.08,999.59,2063.64,2608.00,2735.01,2953.12,349.96,320.85,28.45,0000 0000 0000 0000 000000
2013-10-31 02:23:59,0.08,2.34,0.00,20.86,22.44,25.23,5.88,31.17,999.54,2063.55,2608.00,2735.00,2953.05,350.11,320.94,28.46,0000 0000 0000 0000 000000
2013-10-31 02:24:59,-0.04,2.34,0.00,20.87,22.44,25.23,5.87,30.79,999.53,2063.45,2607.96,2735.00,2953.01,349.32,320.21,28.47,0000 0000 0000 0000 000000
2013-10-31 02:25:59,-0.08,2.34,0.00,20.87,22.44,25.22,5.90,30.96,999.53,2063.31,2607.85,2734.98,2953.00,349.98,320.81,28.47,0000 0000 0000 0000 000000
2013-10-31 02:26:59,-0.12,2.34,0.00,20.87,22.44,25.21,5.88,30.88,999.53,2063.34,2607.63,2734.99,2953.00,350.36,321.16,28.48,0000 0000 0000 0000 000000
2013-10-31 02:28:00,0.08,2.34,0.00,20.86,22.44,25.23,5.89,31.21,999.53,2063.40,2607.32,2734.96,2953.00,350.14,320.97,28.48,0000 0000 0000 0000 000000
2013-10-31 02:29:00,0.11,2.34,0.00,20.87,22.44,25.24,5.78,30.96,999.53,2063.35,2607.15,2734.95,2952.99,348.22,319.19,28.49,0000 0000 0000 0000 000000
2013-10-31 02:30:00,0.00,2.34,0.00,20.89,22.45,25.25,5.94,31.13,999.53,2063.25,2607.06,2734.89,2952.98,350.14,320.93,28.49,0000 0000 0000 0000 000000
2013-10-31 02:31:00,-0.06,2.34,0.00,20.90,22.46,25.28,5.93,31.25,999.53,2063.26,2607.02,2734.76,2952.97,349.98,321.06,28.50,0000 0000 0000 0000 000000
2013-10-31 02:32:01,0.07,2.34,0.00,20.91,22.46,25.25,5.92,31.08,999.53,2063.17,2607.00,2734.42,2952.79,349.95,320.75,28.51,0000 0000 0000 0000 000000
2013-10-31 02:33:01,0.04,2.34,0.00,20.92,22.47,25.27,5.76,31.29,999.53,2063.13,2606.99,2734.20,2952.49,349.58,320.69,28.51,0000 0000 0000 0000 000000
2013-10-31 02:34:01,0.08,2.34,0.00,20.88,22.47,25.22,6.01,31.25,999.53,2063.18,2606.97,2734.09,2952.32,350.56,321.08,28.52,0000 0000 0000 0000 000000
2013-10-31 02:35:01,0.14,2.35,0.00,20.86,22.47,25.26,5.84,31.25,999.53,2063.18,2606.93,2734.03,2952.15,350.38,320.99,28.52,0000 0000 0000 0000 000000
2013-10-31 02:36:01,0.00,2.35,0.00,20.88,22.47,25.26,5.92,31.33,999.53,2063.14,2606.75,2734.02,2952.07,349.84,321.02,28.53,0000 0000 0000 0000 000000